This demonstration page uses our WeatherBlox Daily Observations layout. Learn more.

Left ArrowRight Arrow

39.01783, -85.05884

Hourly Observations for March 23, 2018

Temp ( °F °C ) Dew Point ( °F °C ) Humidity (%) Winds ( mph kmh ) Pressure ( in mb ) Visibility ( mi km ) Precip ( " mm )
12:52 am 00:52 Clear 33 0.6 26 -3.3 75 75 W 3 6 30.29 1026 10 16 N/A
1:52 am 01:52 Clear 32 undefined 23 -5 69 69 NNW 6 9 30.29 1026 10 16 N/A
2:52 am 02:52 Clear 30 -1.1 22 -5.6 72 72 NNW 3 6 30.30 1026 10 16 N/A
3:52 am 03:52 Clear 28 -2.2 22 -5.6 78 78 N N/A 30.29 1026 10 16 N/A
4:52 am 04:52 Mostly Cloudy 26 -3.3 24 -4.4 92 92 N N/A 30.29 1026 10 16 N/A
5:52 am 05:52 Cloudy 26 -3.3 25 -3.9 96 96 N N/A 30.30 1026 10 16 N/A
6:52 am 06:52 Cloudy 28 -2.2 26 -3.3 92 92 N N/A 30.31 1026 10 16 N/A
7:52 am 07:52 Partly Cloudy 29 -1.7 23 -5 78 78 N N/A 30.31 1026 8 13 N/A
8:52 am 08:52 Mostly Sunny 32 undefined 28 -2.2 85 85 W 5 7 30.32 1027 10 16 N/A
9:52 am 09:52 Sunny 37 2.8 21 -6.1 52 52 N 10 17 30.32 1027 10 16 N/A
10:52 am 10:52 Sunny 40 4.4 20 -6.7 45 45 VRB 5 7 30.32 1027 10 16 N/A
11:52 am 11:52 Sunny 43 6.1 20 -6.7 40 40 WNW 3 6 30.32 1027 10 16 N/A
12:52 pm 12:52 Mostly Sunny 46 7.8 21 -6.1 37 37 NNW 12 19 30.31 1026 10 16 N/A
1:52 pm 13:52 Mostly Sunny 48 8.9 21 -6.1 34 34 W 7 11 30.29 1026 10 16 N/A
2:52 pm 14:52 Mostly Sunny 50 10 23 -5 35 35 NNW 13 20 30.27 1025 10 16 N/A
3:52 pm 15:52 Partly Cloudy 50 10 22 -5.6 33 33 N 12 19 30.25 1025 10 16 N/A
4:52 pm 16:52 Mostly Cloudy 50 10 21 -6.1 32 32 NNW 8 13 30.24 1024 10 16 N/A
5:52 pm 17:52 Mostly Cloudy 48 8.9 22 -5.6 36 36 N 9 15 30.24 1024 10 16 N/A
6:52 pm 18:52 Mostly Cloudy 46 7.8 21 -6.1 37 37 N 13 20 30.24 1024 10 16 N/A
7:52 pm 19:52 Cloudy 42 5.6 21 -6.1 43 43 N 8 13 30.24 1024 10 16 N/A
8:52 pm 20:52 Cloudy 41 5 21 -6.1 45 45 N 9 15 30.24 1024 10 16 N/A
9:52 pm 21:52 Cloudy 42 5.6 20 -6.7 41 41 NNE 9 15 30.25 1024 10 16 N/A
10:52 pm 22:52 Cloudy 41 5 21 -6.1 45 45 NE 10 17 30.25 1024 10 16 N/A
11:52 pm 23:52 Mostly Cloudy 39 3.9 22 -5.6 50 50 ENE 9 15 30.24 1024 10 16 N/A

Powered by AerisWeather